Zurück zum Katalog

STARLINK-36847

AktivKommunikationVLEO
NORAD 67910·PAYLOAD·🇺🇸 United States

Gestartet Feb 22, 2026 von Vandenberg Space Force Base

Loading…

Nächste Überflüge (nächste 24 Stunden)

TLE

AktuellSource: CelesTrak SupGP

Epoche: Sep 14, 2026, 22:50 UTC

1 67910C 26036G   26257.95187500  .00033480  00000+0  12123-2 0  2572
2 67910  43.0011 256.5362 0001436 264.6823 177.8404 15.27571079    14

Verfolge STARLINK-36847 in Echtzeit mit AllMySat

Download on the App Store